Weather in Longyugan

Russia / Yamalo-Nenets Autonomous Okrug     64°46′52″N   70°57′03″E
temp.,
°C
wind,
m/s
gust,
m/s
humid.,
%
clouds,
%
prec.,
mm/h
press.,
hPa
HPBL,
m
27 february, sat
sat2723:00−22w339898 0.1 102430
02:00−25w349883 0.0 102324
05:00−25w349688 0.1 102428
08:00−26w239790 0.0 102419
11:00−22w349488 0.0 1024175
14:00−20w238990 0.0 1024265
17:00−23sw129871 0.0 102420
20:00−25sw239730 0.0 102420
28 february, sun
sun2823:00−25sw349223 0.0 102420
02:00−26sw34970 0.0 102419
05:00−27ssw34950 0.0 102419
08:00−27ssw44930 0.0 102425
11:00−23ssw57910 0.0 1024226
14:00−21s56880 0.0 1024249
17:00−24s45920 0.0 102444
20:00−26s56910 0.0 102346
1 march, mon
mon123:00−27s56900 0.0 102447
02:00−28ssw55910 0.0 102341
05:00−28ssw55910 0.0 102240
08:00−28ssw569248 0.0 102260
11:00−23ssw689042 0.0 1021253
14:00−21s7108744 0.0 1019278
17:00−23s6109052 0.0 1018135
20:00−25s712870 0.0 1017140
2 march, tue
tue223:00−25ssw712850 0.0 1016167
02:00−25s812840 0.0 1014182
05:00−25s8138323 0.0 1013186
08:00−25s9158486 0.0 1012221
11:00−21s11158667 0.0 1012316
14:00−19s10158298 0.0 1011369
17:00−20s9168497 0.0 1011267
20:00−22s101587100 0.0 1010249
3 march, wed
wed323:00−22s91590100 0.0 1010255
02:00−21s91493100 0.0 1010252
05:00−21s91493100 0.0 1009252
08:00−21s91594100 0.0 1009259
11:00−18s101591100 0.0 1009392
14:00−17s101590100 0.0 1008431
17:00−18s101691100 0.0 1008355
20:00−18s101692100 0.0 1007383